Location: Burla
(50.9568°N, 10.4983°E)
Time: 06:22:27
(UTC+00:00)

Cosmos 1633 Rocket - Pass Details

Date: 18 January 2026
Orbit: 600 x 616 km, 82.5° (Epoch: 17 February)

Event Time Altitude Azimuth Distance (km) Brightness Sun altitude
Rises 06:22:30 0° 214° (SW) 2,857 6.4 -7.7°
Reaches altitude 10° 06:24:53 10° 224° (SW) 1,956 5.4 -7.4°
Maximum altitude 06:28:48 33° 289° (WNW) 1,035 3.7 -6.8°
Drops below altitude 10° 06:32:44 10° 354° (N) 1,962 5.3 -6.2°
Sets 06:35:09 0° 4° (N) 2,868 6.3 -5.9°
